Atlanta, NE

11:41 AM CDT on September 29, 2016 (GMT -0500)
Brewster

Weather History for KHDE - February, 2013

Change the Weather History Date:

Wednesday, February 6, 2013

  Actual Average Record
Temperature  
Mean Temperature 43 °F -  
Max Temperature 54 °F 33 °F 65 °F (2015)
Min Temperature 32 °F 12 °F -12 °F (1982)
Degree Days  
Heating Degree Days 22    
Moisture  
Dew Point 33 °F    
Average Humidity 71    
Maximum Humidity 91    
Minimum Humidity 50    
Precipitation  
Precipitation 0.00 in - - ()
Sea Level Pressure  
Sea Level Pressure 29.85 in    
Wind  
Wind Speed 10 mph (South)    
Max Wind Speed 17 mph    
Max Gust Speed 25 mph    
Visibility 10 miles    
Events      
Averages and records for this station are not official NWS values.
T = Trace of Precipitation, MM = Missing Value Source: NWS Daily Summary

Daily Weather History Graph

Daily Weather History Graph

Search for Another Location

Airport or City:

Trip Planner

Search our weather history database for the weather conditions in past years. The results will help you decide how hot, cold, wet, or windy it might be!

Date:

Astronomy

Feb. 06, 2013 Rise Set
Actual Time 7:41 AM CST 6:02 PM CST
Civil Twilight 7:12 AM CST 6:30 PM CST
Nautical Twilight 6:40 AM CST 7:02 PM CST
Astronomical Twilight 6:08 AM CST 7:34 PM CST
Moon 4:27 AM CST (2/6) 2:21 PM CST (2/6)
Length of Visible Light 11h 17m
Length of Day
10h 20m
Waning Crescent, 17% of the Moon is Illuminated
Feb 6
Waning Crescent
Feb 10
New
Feb 17
First Quarter
Feb 25
Full
Mar 4
Last Quarter

Hourly Weather History & Observations

Time (CST) Temp. Windchill Dew Point Humidity Pressure Visibility Wind Dir Wind Speed Gust Speed Precip Events Conditions
12:15 AM 36.7 °F 29.4 °F 29.8 °F 76% 29.96 in 10.0 mi SSE 10.4 mph - N/A   Scattered Clouds
12:35 AM 36.7 °F 29.9 °F 29.8 °F 76% 29.96 in 10.0 mi SSE 9.2 mph - N/A   Scattered Clouds
12:55 AM 38.5 °F 30.3 °F 30.2 °F 72% 29.95 in 10.0 mi South 13.8 mph - N/A   Clear
2:35 AM 37.2 °F 30.0 °F 29.8 °F 75% 29.93 in 10.0 mi South 10.4 mph - N/A   Clear
2:55 AM 36.9 °F 29.1 °F 29.7 °F 75% 29.93 in 10.0 mi South 11.5 mph - N/A   Clear
3:15 AM 37.6 °F 29.6 °F 29.3 °F 72% 29.93 in 10.0 mi South 12.7 mph - N/A   Scattered Clouds
3:35 AM 37.4 °F 29.8 °F 29.3 °F 73% 29.92 in 10.0 mi South 11.5 mph - N/A   Mostly Cloudy
3:55 AM 37.4 °F 29.8 °F 29.1 °F 72% 29.91 in 10.0 mi South 11.5 mph - N/A   Scattered Clouds
4:15 AM 37.8 °F 30.7 °F 29.1 °F 71% 29.91 in 10.0 mi South 10.4 mph - N/A   Mostly Cloudy
4:35 AM 38.3 °F 30.5 °F 29.1 °F 70% 29.90 in 10.0 mi South 12.7 mph - N/A   Overcast
4:55 AM 37.8 °F 29.4 °F 29.1 °F 71% 29.90 in 10.0 mi South 13.8 mph - N/A   Overcast
5:15 AM 37.4 °F 29.8 °F 29.1 °F 72% 29.90 in 10.0 mi South 11.5 mph - N/A   Mostly Cloudy
5:35 AM 36.7 °F 29.4 °F 29.1 °F 74% 29.90 in 10.0 mi South 10.4 mph - N/A   Scattered Clouds
5:55 AM 36.1 °F 29.3 °F 28.9 °F 75% 29.90 in 10.0 mi South 9.2 mph - N/A   Clear
6:15 AM 34.9 °F 27.7 °F 28.4 °F 77% 29.89 in 10.0 mi South 9.2 mph - N/A   Clear
6:35 AM 34.0 °F 26.6 °F 28.4 °F 80% 29.88 in 10.0 mi South 9.2 mph - N/A   Clear
6:55 AM 33.4 °F 25.9 °F 28.4 °F 82% 29.88 in 10.0 mi South 9.2 mph - N/A   Clear
7:15 AM 33.1 °F 26.1 °F 28.4 °F 83% 29.88 in 10.0 mi South 8.1 mph - N/A   Clear
7:35 AM 32.5 °F 24.8 °F 28.0 °F 83% 29.88 in 10.0 mi SSE 9.2 mph - N/A   Clear
7:55 AM 32.0 °F 24.8 °F 27.5 °F 83% 29.87 in 10.0 mi SSE 8.1 mph - N/A   Clear
8:15 AM 32.4 °F 25.3 °F 28.2 °F 85% 29.88 in 10.0 mi South 8.1 mph - N/A   Clear
8:35 AM 33.4 °F 26.6 °F 28.8 °F 83% 29.88 in 10.0 mi South 8.1 mph - N/A   Clear
8:55 AM 34.2 °F 27.5 °F 28.8 °F 81% 29.88 in 10.0 mi South 8.1 mph - N/A   Clear
9:15 AM 35.4 °F 29.7 °F 29.3 °F 78% 29.88 in 10.0 mi South 6.9 mph - N/A   Clear
9:35 AM 37.2 °F 31.9 °F 29.3 °F 73% 29.88 in 10.0 mi South 6.9 mph - N/A   Clear
9:55 AM 40.3 °F 34.9 °F 30.2 °F 67% 29.88 in 10.0 mi South 8.1 mph - N/A   Clear
10:15 AM 43.5 °F 38.3 °F 30.9 °F 61% 29.87 in 10.0 mi South 9.2 mph - N/A   Clear
10:35 AM 46.4 °F 41.9 °F 30.4 °F 54% 29.87 in 10.0 mi SSW 9.2 mph - N/A   Clear
10:55 AM 48.6 °F - 30.9 °F 51% 29.86 in 10.0 mi South 11.5 mph - N/A   Clear
11:15 AM 49.6 °F - 32.0 °F 51% 29.86 in 10.0 mi South 10.4 mph - N/A   Clear
11:35 AM 50.9 °F - 32.9 °F 50% 29.85 in 10.0 mi South 12.7 mph - N/A   Clear
11:55 AM 51.3 °F - 34.7 °F 53% 29.84 in 10.0 mi South 16.1 mph 19.6 mph N/A   Clear
12:15 PM 51.1 °F - 34.9 °F 54% 29.83 in 10.0 mi South 16.1 mph - N/A   Clear
12:35 PM 51.4 °F - 36.5 °F 57% 29.81 in 10.0 mi South 16.1 mph 24.2 mph N/A   Clear
12:55 PM 52.0 °F - 38.8 °F 61% 29.81 in 10.0 mi South 15.0 mph 23.0 mph N/A   Clear
1:15 PM 51.4 °F - 37.4 °F 59% 29.80 in 10.0 mi South 17.3 mph 25.3 mph N/A   Clear
1:35 PM 52.3 °F - 36.7 °F 55% 29.78 in 10.0 mi South 15.0 mph 20.7 mph N/A   Clear
1:55 PM 53.6 °F - 35.8 °F 51% 29.78 in 10.0 mi South 15.0 mph - N/A   Clear
2:15 PM 54.5 °F - 38.3 °F 54% 29.77 in 10.0 mi South 13.8 mph 19.6 mph N/A   Clear
2:35 PM 53.6 °F - 38.3 °F 56% 29.76 in 10.0 mi South 17.3 mph 20.7 mph N/A   Clear
2:55 PM 53.8 °F - 38.5 °F 56% 29.76 in 10.0 mi South 15.0 mph - N/A   Clear
3:15 PM 53.6 °F - 38.5 °F 57% 29.76 in 10.0 mi South 13.8 mph - N/A   Clear
3:35 PM 52.9 °F - 40.1 °F 62% 29.77 in 10.0 mi South 13.8 mph - N/A   Clear
3:55 PM 53.1 °F - 40.5 °F 62% 29.76 in 10.0 mi South 13.8 mph - N/A   Clear
4:15 PM 53.8 °F - 39.6 °F 59% 29.78 in 10.0 mi SW 9.2 mph 19.6 mph N/A   Clear
4:35 PM 54.1 °F - 39.4 °F 57% 29.78 in 10.0 mi SSW 9.2 mph - N/A   Clear
4:55 PM 54.3 °F - 38.7 °F 55% 29.78 in 10.0 mi SSW 9.2 mph - N/A   Clear
5:15 PM 53.6 °F - 37.8 °F 55% 29.78 in 10.0 mi SW 5.8 mph - N/A   Clear
5:35 PM 52.5 °F - 37.8 °F 57% 29.78 in 10.0 mi South 3.5 mph - N/A   Clear
5:55 PM 49.3 °F - 36.5 °F 61% 29.79 in 10.0 mi South 5.8 mph - N/A   Clear
6:15 PM 46.4 °F 44.3 °F 36.1 °F 67% 29.79 in 10.0 mi SSE 4.6 mph - N/A   Clear
6:35 PM 43.5 °F 40.1 °F 35.2 °F 73% 29.80 in 10.0 mi SSE 5.8 mph - N/A   Clear
6:55 PM 44.2 °F 41.0 °F 36.5 °F 74% 29.80 in 10.0 mi SSE 5.8 mph - N/A   Clear
7:15 PM 41.4 °F 37.6 °F 34.9 °F 78% 29.81 in 10.0 mi SSE 5.8 mph - N/A   Clear
7:35 PM 39.2 °F - 34.0 °F 82% 29.81 in 10.0 mi Calm Calm - N/A   Clear
7:55 PM 40.1 °F - 35.4 °F 83% 29.82 in 10.0 mi Calm Calm - N/A   Clear
8:15 PM 36.3 °F - 33.1 °F 88% 29.82 in 7.0 mi Calm Calm - N/A   Clear
8:35 PM 35.1 °F - 32.0 °F 89% 29.83 in 7.0 mi Calm Calm - N/A   Clear
8:55 PM 35.6 °F - 33.1 °F 91% 29.84 in 7.0 mi Calm Calm - N/A   Clear
9:15 PM 34.7 °F - 32.2 °F 91% 29.84 in 7.0 mi Calm Calm - N/A   Scattered Clouds
9:35 PM 34.9 °F 30.8 °F 32.2 °F 90% 29.86 in 7.0 mi NNW 4.6 mph - N/A   Scattered Clouds
9:55 PM 39.7 °F 34.9 °F 36.9 °F 89% 29.86 in 10.0 mi NNW 6.9 mph - N/A   Clear
10:15 PM 39.0 °F 35.7 °F 34.5 °F 84% 29.87 in 10.0 mi NNW 4.6 mph - N/A   Mostly Cloudy
10:35 PM 40.1 °F 34.1 °F 35.2 °F 83% 29.88 in 10.0 mi NW 9.2 mph - N/A   Mostly Cloudy
10:55 PM 43.0 °F 36.8 °F 34.9 °F 73% 29.89 in 10.0 mi North 11.5 mph - N/A   Overcast
11:15 PM 42.1 °F 37.1 °F 34.2 °F 74% 29.89 in 10.0 mi North 8.1 mph - N/A   Mostly Cloudy
11:35 PM 40.6 °F 34.8 °F 34.5 °F 79% 29.89 in 10.0 mi North 9.2 mph - N/A   Overcast
11:55 PM 41.7 °F 35.2 °F 36.5 °F 82% 29.89 in 10.0 mi North 11.5 mph - N/A   Overcast